Voltar ao catálogo

COSMOS 2251 DEB

AtivoLEO
NORAD 38483·DEBRIS·🇷🇺 Russia

Lançado Jun 16, 1993 de Plesetsk Cosmodrome

Loading…

Próximas Passagens (próximas 24 horas)

TLE

ObsoletoSource: Space-Track

Época: Aug 29, 2026, 10:02 UTC

1 38483U 93036BTT 26241.41833115  .00001239  00000-0  45784-3 0  9994
2 38483  74.2581 266.4647 0114766 293.5756  65.3375 14.29831528671884

Acompanhe COSMOS 2251 DEB em tempo real com AllMySat

Download on the App Store